If you wish to contribute or participate in the discussions about articles you are invited to join SKYbrary as a registered user

 Actions

Assiut International Airport

From SKYbrary Wiki

HEAT
Airport
ICAO: HEAT – IATA: ATZ
Summary
Name Assiut International Airport
Region Africa
Territory Egypt EG.gif
Location Asyut, Al Wadi al Jadid
Serving Asyut
Elevation 235.306 m
772 ft
772 ft235.306 m
Type medium airport
Coordinates 27° 2' 47.43" N, 31° 0' 43.14" E
Runways
Designator Length Width Surface ROPS
13/31 3019 m9,904.856 ft
45 m147.638 ft
ASP /


METAR
Observation HEAT 072200Z 36016KT CAVOK 27/13 Q1010 NOSIG
Station Asyut
Date/Time 07 August 2020 22:00:00
Wind direction 360°
Wind speed 16 kts
Lowest cloud amount clouds and visibility OK
Temperature 27°C
Dew point 13°C
Humidity 42%
QNH 1010 hPa
Weather condition n/a

Maps

Terrain

Loading map...

Airport Layout

Loading map...


Accidents & Serious Incidents at or in vicinity of HEAT

None on SKYbrary